Regional Weather Roundup
Issued by NWS Newport/Morehead, NC

Current Version | Previous Version | Text Only | Print | Product List | Glossary On
Versions: 1 2 3 4 5 6 7 8 9 10 11 12 13 14 15 16 17 18 19 20 21 22 23 24 25 26 27 28 29 30 31 32 33 34 35 36 37 38 39 40 41 42 43 44 45 46 47 48 49 50
000 ASUS42 KMHX 242325 RWRMHX WEATHER ROUNDUP FOR EASTERN NORTH CAROLINA NATIONAL WEATHER SERVICE NEWPORT/MOREHEAD CITY NC 700 PM EDT FRI MAR 24 2017 NOTE: "FAIR" INDICATES FEW OR NO CLOUDS BELOW 12,000 FEET WITH NO SIGNIFICANT WEATHER AND/OR OBSTRUCTIONS TO VISIBILITY NCZ015>017-031-032-045>047-102-103-250000- NORTH COAST CITY SKY/WX TMP DP RH WIND PRES REMARKS EDENTON NOT AVBL ELIZABETH CITY CLEAR 65 45 48 S9 30.33F KITTY HAWK NOT AVBL MANTEO CLEAR 59 48 66 SW17 30.36F $$ NCZ045>047-081-094-103-104-250000- CENTRAL COAST CITY SKY/WX TMP DP RH WIND PRES REMARKS FRISCO CLEAR 61 51 70 SW8 30.40F $$ NCZ095-097-098-100-101-250000- SOUTHERN COAST CITY SKY/WX TMP DP RH WIND PRES REMARKS BEAUFORT CLEAR 63 51 65 SW10 30.40F CEDAR ISLAND NOT AVBL JACKSONVILLE CLEAR 64 51 62 S10 30.38F PINEY ISLAND CLEAR N/A N/A N/A S10 30.39F WILMINGTON CLEAR 65 52 62 S7 30.39F $$ NCZ011>013-027>030-043-044-078>080-089-090>093-098-250000- COASTAL PLAIN CITY SKY/WX TMP DP RH WIND PRES REMARKS AHOSKIE NOT AVBL CLINTON CLEAR 70 47 44 S6 30.36S ELIZABETHTOWN CLEAR 70 47 43 S8 30.37S GOLDSBORO CLEAR 70 42 36 SW9 30.33F GREENVILLE CLEAR 70 43 37 SW9 30.34F HAVELOCK CLEAR 64 49 57 S7 30.40F KENANSVILLE CLEAR 70 45 40 SW5 30.36S KINSTON CLEAR 70 45 40 S10 30.36S NEW BERN CLEAR 64 49 57 S12G22 30.39S RICHLANDS CLEAR 65 51 60 S13 30.38S ROCKY MOUNT CLEAR 67 47 48 SW10 30.34S WASHINGTON CLEAR 67 47 49 S8G17 30.35S WHITEVILLE CLEAR 68 49 51 S9 30.37F $$ AMZ130-135-150-152-154-156-158-170-250-252-270-ANZ085-086-088-633-658-670-250000- MARINE OBSERVATIONS STATION/POSITION TIME TEMP WIND PRES WAVE SWELL AIR SEA DIR/SP/G HT/PER HT/PER (UTC) (F) (DEG/KT/KT) (MB) (FT/S) (FT/S) CHESAPEAKE LIGHT NOT AVBL 64 E VA BEACH 2250 54 51 190/ 16/ 19 1027.2 3/10 2/10 DUCK 2300 62 48 200/ 15/ 20 1026.6 2 E DUCK 2300 50 N/A 2/11 2/11 OREGON INLET 2300 57 53 180/ 15/ 17 1028.3 13E OREGON INLT NOT AVBL HATTERAS CG 2300 59 54 200/ 8/ 10 1029.1 DIAMOND BUOY 2250 65 74 210/ 16/ 19 1029.8 4/ 8 3/ 8 CAPE LOOKOUT 2300 65 190/ 12/ 15 1029.2 BEAUFORT LAB 2300 62 52 210/ 8/ 11 1028.4 30 SE NEW RVR IN 2308 66 190/ 12/ 16 1029.6 30 SE NEW RVR IN 2313 68 N/A 3/10 27 SE WRIGHTSVLE 2308 65 62 180/ 6/ 10 1028.7 5 SE WRIGHTSVLE 2308 62 59 150/ 4/ 6 1029.1 225 S CAPE HAT 2250 64 74 90/ 14/ 19 1030.5 5/10 3/10 41 SE CHARLESTON 2250 68 72 110/ 10/ 14 1028.3 4/ 7 3/ 7 $$

USA.gov is the U.S. government's official web portal to all federal, state and local government web resources and services.